Simultaneous Nadir Overpasses (SNOs) Predictions

Prediction of SNOs between GOES-17 and METOP-C Satellite Orbit:

Table of predicted SNOs for the next 14.0 days since TLE Epoch: 12/9/2023
Index Date Time (GOES-17) GOES-17 Lat,Lon METOP-C Lat,Lon Distance(km) Time Diff (sec)
1 12/09/2023 04:15:27 0.01,-104.66 0.71,-101.64 345.03 11
2 12/10/2023 16:33:11 -0.01,-104.68 0.33,-106.20 172.93 80
3 12/11/2023 16:15:11 -0.01,-104.68 -0.78,-101.20 396.54 80
4 12/13/2023 04:34:10 0.01,-104.67 -0.23,-105.79 128.08 80
5 12/14/2023 04:10:51 0.01,-104.66 0.89,-100.80 440.81 80
6 12/15/2023 16:29:43 -0.01,-104.67 0.14,-105.36 78.05 80
7 12/16/2023 16:11:44 0.00,-104.67 -0.98,-100.37 491.35 80
8 12/18/2023 04:30:42 -0.01,-104.66 -0.09,-104.94 32.63 80
9 12/20/2023 16:28:55 0.02,-104.67 -0.02,-104.51 18.27 80
